sat.trackr.live / text

‹ back to catalog

STARLINK-37450

NORAD 68818 · 2026-089S

PAYLOAD ACTIVE UNKNOWN

§ Identity

Operator
Country
US
Launch date
2026-04-23
Launch site
AFWTR
Launch vehicle
Mass (kg)
RCS (m²)

Purposes: comms

External: N2YO · Heavens-Above · Gunter

§ Orbital elements

Epoch: 2026-09-19T23:59:08.261952Z

Period
93.91 min
Inclination
97.2863°
Eccentricity
0.0001959
Mean motion
15.33452771 rev/d
Perigee alt
464.2 km
Apogee alt
466.9 km
Semi-major
6,843.7 km
B*
4.4432e-4
RAAN
108.7888°
Arg perigee
85.1918°
Mean anomaly
274.9548°
Rev number
2,318

§ Raw data

STARLINK-374501 68818U 26089S   26262.99940118  .00014300  00000+0  44432-3 0  99922 68818  97.2863 108.7888 0001959  85.1918 274.9548 15.33452771 23185

JSON: /api/v1/satellites/68818 · /tle

For live sub-satellite position, see the globe view (requires WebGL).

§ Visibility from observer

Set your observer location to see the next 7 days of passes ≥ 10°. The values pass through the URL so the page stays shareable.

No JS? Fill the form by hand. The geolocation button needs JavaScript.